#datint,netname,site,siteID,timestamp,IntT,BattV,AirT2,AirT,AirT_Avg,AirT_Max,AirT_Min,RH_Avg,RH_Max,RH_Min,EA_Avg,Td_Avg,Td_Max,Td_Min,WindS_Smp,WindS_Avg,WindD_Avg,WindD_SD,WindS_Max,ETo,ETr,SoilT4,SoilT8,SoilVWC8,SolarW_Avg,wetstate_Avg,wetT_Avg,Precip_accum,Precip_WPG,Precip_TB
15min,AgWx,beryljct,423,04APR2018:01:00:00,32.9,12.91,26.8,25.6,26.8,29.0,24.2,33,42,30,0.192,1.6,5.0,0.2,2.324,3.4,327,51,5.8,0.00007,0.00011,47.9,49.9,23,0,0,35.3,13.21,0.00,0.00
15min,AgWx,beryljct,423,04APR2018:01:15:00,31.3,12.9,25.9,25.4,25.4,26.0,25.0,44,46,41,0.215,6.5,7.5,4.7,2.17,1.8,93,19,3.9,-0.00005,-0.00004,47.6,49.6,23,0,0,35.5,13.21,0.00,0.00
15min,AgWx,beryljct,423,04APR2018:01:30:00,29.8,12.89,25.4,24.3,24.9,25.6,24.0,46,49,43,0.207,6.9,7.6,6.4,0,0.2,100,9.2,2.0,-0.00020,-0.00031,47.4,49.5,23,0,0,35.4,13.21,0.00,0.00
15min,AgWx,beryljct,423,04APR2018:01:45:00,28.6,12.88,26.2,26.6,25.4,26.6,23.9,43,48,38,0.186,5.7,7.1,4.3,1.447,0.4,78,21,1.5,-0.00019,-0.00028,47.1,49.3,22,0,0,35.5,13.21,0.00,0.00
15min,AgWx,beryljct,423,04APR2018:02:00:00,28.0,12.86,24.5,21.8,24.5,26.9,21.8,47,58,38,0.232,6.9,9.3,4.4,1.973,3.6,151,4.2,5.6,0.00004,0.00007,46.9,49.6,23,0,0,35.7,13.21,0.00,0.00
15min,AgWx,beryljct,423,04APR2018:02:15:00,27.0,12.85,22.7,23.2,22.1,23.3,21.0,50,60,41,0.174,6.1,9.2,3.0,3.617,3.3,159,1.1,4.3,0.00002,0.00004,46.6,49.1,22,0,0,35.7,13.21,0.00,0.00
15min,AgWx,beryljct,423,04APR2018:02:30:00,26.2,12.83,23.8,21.7,23.4,25.1,21.7,39,43,35,0.169,2.2,3.2,1.3,2.916,3.0,167,0.9,4.9,0.00003,0.00006,46.3,49.0,22,0,0,35.6,13.21,0.00,0.00
15min,AgWx,beryljct,423,04APR2018:02:45:00,25.6,12.82,21.8,19.3,21.5,22.2,19.3,42,50,39,0.180,1.8,3.8,0.6,2.806,3.8,175,8.3,5.1,0.00006,0.00009,46.1,48.8,22,0,0,35.5,13.21,0.00,0.00
15min,AgWx,beryljct,423,04APR2018:03:00:00,24.8,12.8,21.0,20.5,20.4,21.6,19.3,48,52,44,0.189,3.6,5.5,1.7,4.406,3.4,173,7.7,4.5,0.00003,0.00005,45.8,49.2,23,0,0,35.4,13.21,0.00,0.00
15min,AgWx,beryljct,423,04APR2018:03:15:00,24.2,12.79,22.0,22.2,21.2,22.2,20.5,44,50,41,0.173,2.7,4.6,1.7,5.612,3.9,179,6.5,5.6,0.00005,0.00008,45.6,48.8,22,0,0,35.5,13.21,0.00,0.00
15min,AgWx,beryljct,423,04APR2018:03:30:00,23.9,12.79,21.6,21.6,21.1,22.5,19.8,45,49,42,0.166,3.2,3.8,1.9,2.455,2.5,180,9.2,4.6,-0.00001,0.00001,45.3,48.7,22,0,0,35.5,13.21,0.00,0.00
15min,AgWx,beryljct,423,04APR2018:03:45:00,23.5,12.62,21.4,20.4,20.9,21.9,19.9,44,49,40,0.170,2.1,3.9,1.0,3.113,1.6,165,2.3,3.1,-0.00006,-0.00006,45.0,47.8,21,0,0,35.6,13.21,0.00,0.00
15min,AgWx,beryljct,423,04APR2018:04:00:00,23.1,12.75,20.9,20.8,20.3,21.0,19.6,49,52,45,0.175,3.9,5.0,2.5,2.959,2.5,155,2.3,4.9,-0.00001,-0.00000,44.8,48.7,23,0,0,35.7,13.21,0.00,0.00
15min,AgWx,beryljct,423,04APR2018:04:15:00,22.7,12.74,19.3,17.7,19.0,20.8,17.7,51,60,45,0.199,4.0,6.2,2.5,3.464,2.4,167,13,4.4,-0.00002,-0.00001,44.5,48.4,22,0,0,35.5,13.21,0.00,0.00
15min,AgWx,beryljct,423,04APR2018:04:30:00,22.2,12.73,18.1,17.5,17.6,18.0,17.1,59,62,55,0.190,5.5,6.6,4.6,1.82,2.8,156,5.8,3.9,-0.00001,-0.00001,44.3,48.6,22,0,0,35.6,13.21,0.00,0.00
15min,AgWx,beryljct,423,04APR2018:04:45:00,21.7,12.7,18.2,17.7,17.6,18.0,17.2,52,58,47,0.162,2.7,5.1,1.1,2.346,1.6,161,0.1,2.4,-0.00006,-0.00006,44.0,48.5,22,0,0,35.5,13.22,0.00,0.00
15min,AgWx,beryljct,423,04APR2018:05:00:00,21.3,12.58,18.5,17.7,17.8,18.2,17.4,50,55,45,0.176,2.3,4.0,0.4,0.175,1.4,161,0.0,2.7,-0.00007,-0.00008,43.7,48.4,23,0,0,35.5,13.22,0.00,0.00
15min,AgWx,beryljct,423,04APR2018:05:15:00,21.2,12.7,19.5,17.4,18.8,20.7,17.4,49,56,43,0.187,2.7,4.6,1.4,4.713,1.8,164,60,4.9,-0.00005,-0.00005,43.5,47.9,22,0,0,35.4,13.22,0.00,0.00
15min,AgWx,beryljct,423,04APR2018:05:30:00,21.1,12.66,16.9,15.9,16.4,17.4,15.9,54,57,52,0.167,2.7,4.6,1.5,4.319,4.0,330,2.1,5.0,0.00003,0.00004,43.3,48.0,22,0,0,35.6,13.22,0.00,0.00
15min,AgWx,beryljct,423,04APR2018:05:45:00,21.2,12.68,19.5,19.2,18.5,20.7,15.8,47,55,41,0.165,1.6,2.6,0.4,4.757,4.9,360,13,6.7,0.00007,0.00009,43.1,48.1,23,0,0,35.6,13.22,0.00,0.00
15min,AgWx,beryljct,423,04APR2018:06:00:00,21.4,12.68,18.5,16.5,18.2,19.8,16.5,48,52,44,0.165,1.7,2.4,1.0,1.381,3.5,347,6.7,5.7,0.00003,0.00005,42.8,47.9,23,0,0,35.5,13.22,0.00,0.00
15min,AgWx,beryljct,423,04APR2018:06:15:00,21.0,12.54,18.0,19.6,17.0,19.6,16.1,49,54,43,0.155,1.2,2.3,0.5,3.376,1.9,346,8.3,3.4,-0.00004,-0.00004,42.6,47.8,23,0,0,35.5,13.22,0.00,0.00
15min,AgWx,beryljct,423,04APR2018:06:30:00,21.0,12.68,19.0,17.2,18.6,21.4,17.0,46,51,40,0.161,1.4,2.1,0.5,0.702,1.9,343,10,3.6,0.00013,0.00022,42.4,47.7,23,0,0,35.5,13.22,0.00,0.00
15min,AgWx,beryljct,423,04APR2018:06:45:00,20.8,12.68,18.3,17.4,17.6,18.5,17.0,54,63,49,0.209,3.6,7.1,1.2,3.617,1.3,127,39,3.9,0.00007,0.00012,42.2,47.6,23,0,0,35.6,13.22,0.00,0.00
15min,AgWx,beryljct,423,04APR2018:07:00:00,20.7,12.66,18.0,17.7,17.4,17.7,17.2,58,63,53,0.179,5.0,6.9,3.2,3.551,3.2,184,3.3,3.9,0.00014,0.00025,42.0,47.5,23,0,0,35.6,13.22,0.00,0.00
15min,AgWx,beryljct,423,04APR2018:07:15:00,20.8,12.66,19.0,19.0,18.2,19.0,17.7,53,55,52,0.193,4.0,5.3,3.4,4.275,3.9,173,7.3,4.9,0.00019,0.00034,41.8,47.3,23,1,0,35.8,13.22,0.00,0.00
15min,AgWx,beryljct,423,04APR2018:07:30:00,21.3,12.53,21.6,21.7,20.7,21.8,19.1,52,54,49,0.196,5.7,6.1,5.2,2.302,3.9,169,4.9,5.5,0.00024,0.00040,41.6,47.2,23,7,0,35.9,13.22,0.00,0.00
15min,AgWx,beryljct,423,04APR2018:07:45:00,22.0,12.7,22.9,22.7,22.2,22.7,21.7,48,50,46,0.203,5.6,6.9,4.6,1.82,1.2,139,23,2.4,0.00016,0.00023,41.5,47.1,23,21,0,35.9,13.22,0.00,0.00
15min,AgWx,beryljct,423,04APR2018:08:00:00,22.6,12.73,24.1,24.4,23.4,24.5,22.7,47,51,42,0.190,6.2,7.4,4.4,2.455,2.4,126,13,3.8,0.00030,0.00044,41.3,47.0,23,42,0,35.8,13.22,0.00,0.00
15min,AgWx,beryljct,423,04APR2018:08:15:00,23.3,12.79,24.6,24.3,24.1,24.4,23.9,50,53,43,0.230,8.1,9.5,4.9,0,0.4,152,0.0,2.6,0.00029,0.00034,41.2,46.8,22,71,0,35.7,13.23,0.00,0.00
15min,AgWx,beryljct,423,04APR2018:08:30:00,24.0,12.83,25.6,25.8,24.9,25.9,24.3,50,52,47,0.230,8.8,9.6,8.2,0.702,0.0,152,0.0,0.7,0.00039,0.00041,41.0,46.7,23,100,0,36.4,13.23,0.00,0.00
15min,AgWx,beryljct,423,04APR2018:08:45:00,25.3,12.97,27.4,27.8,26.7,27.8,25.8,47,51,42,0.224,9.0,11.0,6.9,3.091,1.9,154,2.2,3.1,0.00064,0.00079,40.9,46.6,23,148,0,37.3,13.23,0.00,0.00
15min,AgWx,beryljct,423,04APR2018:09:00:00,27.6,13.18,30.0,30.9,29.3,30.9,27.7,39,45,34,0.202,7.3,9.8,5.7,2.872,2.7,157,7.7,3.6,0.00097,0.00121,40.8,46.5,23,227,0,43.7,13.23,0.00,0.00
15min,AgWx,beryljct,423,04APR2018:09:15:00,30.4,13.31,33.2,33.8,32.6,33.8,31.0,31,34,29,0.208,4.9,6.8,3.9,3.091,3.2,156,13,5.0,0.00112,0.00143,40.7,46.4,23,219,0,46.3,13.23,0.00,0.00
15min,AgWx,beryljct,423,04APR2018:09:30:00,32.9,13.58,35.2,35.8,34.7,35.8,33.5,29,31,28,0.201,5.8,7.2,4.9,5.283,4.1,148,6.7,5.5,0.00134,0.00174,40.7,46.3,23,250,0,47.4,13.23,0.00,0.00
15min,AgWx,beryljct,423,04APR2018:09:45:00,35.4,14.42,37.0,37.6,36.5,37.6,35.8,29,31,28,0.225,7.5,8.6,5.7,1.03,3.0,129,15,5.4,0.00157,0.00193,40.7,46.2,23,320,0,54.1,13.23,0.00,0.00
15min,AgWx,beryljct,423,04APR2018:10:00:00,38.6,14.61,39.2,41.2,38.7,41.2,37.3,28,30,26,0.258,8.1,11.7,6.9,1.863,1.5,107,19,3.3,0.00203,0.00230,40.7,46.1,23,451,0,66.6,13.23,0.00,0.00
15min,AgWx,beryljct,423,04APR2018:10:15:00,42.0,14.54,41.5,42.0,41.1,42.5,39.7,26,29,24,0.218,9.0,11.2,7.7,0,1.0,103,14,3.3,0.00207,0.00231,40.8,46.0,23,437,0,70.9,13.23,0.00,0.00
15min,AgWx,beryljct,423,04APR2018:10:30:00,44.9,14.54,44.0,45.2,43.5,45.9,41.9,23,25,21,0.218,8.2,10.8,6.2,1.513,1.2,89,17,2.2,0.00249,0.00279,40.9,45.9,23,511,0,74.4,13.23,0.00,0.00
15min,AgWx,beryljct,423,04APR2018:10:45:00,48.3,14.46,46.2,46.8,45.9,47.0,44.8,20,22,18,0.201,7.2,10.0,5.1,1.841,1.5,28,30,3.2,0.00290,0.00329,41.1,45.8,23,570,0,79.3,13.23,0.00,0.00
15min,AgWx,beryljct,423,04APR2018:11:00:00,51.0,14.41,48.4,48.7,48.0,49.6,46.7,17,19,15,0.184,5.9,8.4,3.4,0.438,1.2,79,39,3.1,0.00278,0.00313,41.3,45.7,23,522,0,78.6,13.23,0.00,0.00
15min,AgWx,beryljct,423,04APR2018:11:15:00,52.9,14.35,50.1,51.1,49.8,51.1,48.8,17,18,16,0.216,6.6,8.3,4.6,0.482,1.3,103,28,3.0,0.00280,0.00317,41.6,45.6,23,504,0,77.5,13.23,0.00,0.00
15min,AgWx,beryljct,423,04APR2018:11:30:00,54.4,14.37,51.3,51.1,51.1,51.8,50.2,17,18,16,0.211,7.6,9.3,6.2,0.592,0.4,82,37,2.1,0.00246,0.00268,41.9,45.5,23,441,0,77.6,13.23,0.00,0.00
15min,AgWx,beryljct,423,04APR2018:11:45:00,55.5,14.35,52.8,52.9,52.4,53.3,51.1,17,18,16,0.225,8.8,10.9,7.3,0.614,0.9,65,16,2.8,0.00245,0.00274,42.3,45.5,23,413,0,76.0,13.23,0.00,0.00
15min,AgWx,beryljct,423,04APR2018:12:00:00,56.6,14.28,53.9,54.3,53.7,54.4,52.8,17,18,16,0.247,9.3,11.4,8.1,1.754,1.1,43,23,3.7,0.00267,0.00301,42.7,45.4,23,443,0,76.4,13.23,0.00,0.00
15min,AgWx,beryljct,423,04APR2018:12:15:00,57.7,14.32,55.0,56.7,54.8,57.0,54.1,16,18,16,0.255,9.8,13.4,8.9,2.85,1.5,8.7,42,3.7,0.00331,0.00375,43.1,45.4,23,558,0,79.8,13.23,0.00,0.00
15min,AgWx,beryljct,423,04APR2018:12:30:00,59.5,13.89,57.1,57.9,56.9,57.9,55.8,17,18,16,0.279,11.9,14.4,9.9,2.433,2.6,119,21,5.1,0.00351,0.00414,43.5,45.3,23,549,0,83.8,13.23,0.00,0.00
15min,AgWx,beryljct,423,04APR2018:12:45:00,60.4,13.85,58.9,59.1,58.7,59.5,57.6,17,19,17,0.304,14.5,16.7,12.6,4.604,5.1,127,12,7.3,0.00329,0.00423,43.9,45.3,23,428,0,75.0,13.22,0.00,0.00
15min,AgWx,beryljct,423,04APR2018:13:00:00,61.1,13.8,60.0,59.9,59.9,60.7,59.0,18,19,17,0.298,16.2,18.4,13.9,7.804,6.4,127,10,8.7,0.00382,0.00496,44.3,45.3,23,506,0,74.4,13.22,0.00,0.00
15min,AgWx,beryljct,423,04APR2018:13:15:00,62.0,13.87,61.3,62.3,61.1,62.5,59.9,17,19,16,0.316,16.2,17.7,14.0,6.577,8.2,138,12,11.8,0.00425,0.00565,44.7,45.3,23,541,0,74.7,13.22,0.00,0.00
15min,AgWx,beryljct,423,04APR2018:13:30:00,63.2,13.82,63.0,63.5,62.8,63.8,62.0,15,16,14,0.304,14.8,16.7,13.3,8.46,7.4,218,22,13.0,0.00419,0.00557,45.1,45.3,23,516,0,77.2,13.22,0.00,0.00
15min,AgWx,beryljct,423,04APR2018:13:45:00,63.9,13.78,62.9,62.7,62.9,63.7,62.3,15,16,14,0.284,14.0,16.5,12.4,5.546,8.4,203,16,13.2,0.00399,0.00547,45.5,45.4,23,445,0,75.5,13.22,0.00,0.00
15min,AgWx,beryljct,423,04APR2018:14:00:00,64.4,13.79,63.4,63.8,63.3,64.0,62.5,15,17,14,0.292,15.4,17.4,13.5,3.639,7.4,218,17,12.2,0.00404,0.00542,45.9,45.4,23,480,0,76.4,13.22,0.00,0.00
15min,AgWx,beryljct,423,04APR2018:14:15:00,64.7,13.79,63.6,63.6,63.6,64.4,62.7,16,17,15,0.299,16.0,17.8,14.5,7.519,7.3,220,17,11.2,0.00363,0.00497,46.3,45.5,23,394,0,74.8,13.22,0.00,0.00
15min,AgWx,beryljct,423,04APR2018:14:30:00,64.7,13.78,63.1,63.0,63.0,63.5,62.6,15,16,15,0.297,15.1,16.4,13.8,11.49,8.7,204,16,14.2,0.00377,0.00527,46.7,45.5,23,395,0,73.6,13.22,0.00,0.00
15min,AgWx,beryljct,423,04APR2018:14:45:00,64.8,13.79,64.1,64.9,63.9,66.0,62.7,15,17,15,0.311,16.0,19.2,14.3,8.26,9.1,208,14,12.5,0.00468,0.00630,47.0,45.6,23,598,0,76.2,13.22,0.00,0.00
15min,AgWx,beryljct,423,04APR2018:15:00:00,66.6,13.71,65.6,65.2,65.5,67.0,64.6,16,17,15,0.315,17.7,20.4,16.1,5.941,8.7,237,20,15.7,0.00642,0.00812,47.4,45.7,23,937,0,82.1,13.22,0.00,0.00
15min,AgWx,beryljct,423,04APR2018:15:15:00,68.3,13.68,65.8,64.2,65.9,68.1,64.2,16,17,15,0.312,17.8,20.3,15.3,6.357,8.3,225,28,16.0,0.00543,0.00703,47.6,45.8,23,757,0,82.1,13.22,0.00,0.00
15min,AgWx,beryljct,423,04APR2018:15:30:00,67.6,13.73,63.2,62.8,63.2,64.1,62.7,17,18,16,0.335,17.5,18.9,16.0,5.59,6.9,246,19,10.7,0.00265,0.00386,47.9,45.9,23,210,0,68.6,13.22,0.00,0.00
15min,AgWx,beryljct,423,04APR2018:15:45:00,67.1,13.75,65.3,65.9,65.1,67.7,62.8,17,18,15,0.347,18.5,20.7,16.8,12.34,8.1,240,14,14.6,0.00521,0.00674,48.2,46.0,23,751,0,76.3,13.22,0.00,0.00
15min,AgWx,beryljct,423,04APR2018:16:00:00,68.8,13.64,66.4,65.7,66.4,68.1,65.5,16,17,15,0.325,18.5,21.1,16.9,5.634,7.7,253,27,14.2,0.00602,0.00761,48.5,46.1,23,866,0,81.4,13.22,0.00,0.00
15min,AgWx,beryljct,423,04APR2018:16:15:00,70.5,13.64,66.7,66.3,66.6,68.0,65.5,15,16,14,0.346,17.9,20.3,16.3,7.585,8.6,258,25,17.7,0.00570,0.00738,48.7,46.2,23,799,0,81.3,13.22,0.00,0.00
15min,AgWx,beryljct,423,04APR2018:16:30:00,71.4,13.58,66.3,67.1,66.3,67.8,65.2,15,16,14,0.332,17.2,19.2,15.6,9.23,6.7,273,42,16.7,0.00543,0.00684,48.9,46.3,23,786,0,81.4,13.22,0.00,0.00
15min,AgWx,beryljct,423,04APR2018:16:45:00,72.1,13.56,67.5,68.5,67.4,69.3,66.6,15,17,14,0.385,18.5,22.5,16.7,15.37,7.3,225,28,15.4,0.00536,0.00686,49.1,46.4,23,753,0,79.9,13.22,0.00,0.00
15min,AgWx,beryljct,423,04APR2018:17:00:00,72.6,13.63,67.6,67.4,67.7,68.7,66.6,15,16,14,0.357,18.5,20.8,17.1,9.16,10.7,215,23,18.7,0.00567,0.00763,49.4,46.5,23,737,0,78.4,13.22,0.00,0.00
15min,AgWx,beryljct,423,04APR2018:17:15:00,72.6,13.67,67.3,66.3,67.3,68.4,66.3,17,18,16,0.363,20.6,22.2,19.3,4.823,9.6,263,13,15.6,0.00506,0.00682,49.8,46.6,23,660,0,76.0,13.22,0.00,0.00
15min,AgWx,beryljct,423,04APR2018:17:30:00,72.6,13.61,67.1,66.7,67.0,68.2,66.1,17,18,16,0.384,20.5,21.9,19.3,7.344,8.5,275,15,14.4,0.00458,0.00616,50.1,46.7,23,603,0,75.8,13.22,0.00,0.00
15min,AgWx,beryljct,423,04APR2018:17:45:00,72.1,13.66,67.0,67.6,66.9,68.8,65.8,17,18,16,0.381,20.4,22.5,19.2,12.1,7.7,288,14,13.8,0.00378,0.00520,50.5,46.8,23,486,0,73.6,13.21,0.00,0.00
15min,AgWx,beryljct,423,04APR2018:18:00:00,71.4,13.62,66.8,65.6,66.8,68.0,65.6,16,17,16,0.357,19.8,20.9,18.9,12.63,12.0,284,10,18.4,0.00339,0.00529,50.9,46.9,23,307,0,70.5,13.22,0.00,0.00
15min,AgWx,beryljct,423,04APR2018:18:15:00,70.0,13.64,65.9,66.1,65.8,66.6,65.0,17,17,16,0.354,19.2,20.5,18.4,8.75,8.2,280,11,13.7,0.00280,0.00423,51.2,47.0,23,312,0,68.5,13.21,0.00,0.00
15min,AgWx,beryljct,423,04APR2018:18:30:00,69.2,13.68,65.8,65.4,65.7,66.5,65.1,17,18,16,0.349,19.3,20.3,18.3,11.25,10.6,264,9.1,14.7,0.00278,0.00446,51.5,47.2,23,244,0,67.5,13.21,0.00,0.00
15min,AgWx,beryljct,423,04APR2018:18:45:00,68.1,13.71,65.1,64.2,65.0,65.9,64.0,18,19,17,0.370,19.9,21.3,19.0,9.14,10.6,278,9.5,15.3,0.00244,0.00409,51.7,47.3,23,189,0,66.4,13.21,0.00,0.00
15min,AgWx,beryljct,423,04APR2018:19:00:00,67.2,13.55,65.1,64.7,64.9,65.2,64.2,18,19,17,0.372,19.9,21.3,19.1,10.06,9.5,271,14,14.9,0.00242,0.00394,51.9,47.5,23,217,0,66.0,13.21,0.00,0.00
15min,AgWx,beryljct,423,04APR2018:19:15:00,66.5,13.31,64.4,63.6,64.3,64.7,63.5,18,19,17,0.365,20.0,20.9,19.0,10.61,8.4,284,8.4,11.3,0.00111,0.00143,52.0,47.6,23,142,0,64.5,13.21,0.00,0.00
15min,AgWx,beryljct,423,04APR2018:19:30:00,65.3,13.26,62.6,61.8,62.7,63.6,61.7,19,19,18,0.346,19.3,20.8,18.1,8.53,8.1,241,20,10.9,0.00095,0.00122,52.1,47.7,23,87,0,61.7,13.21,0.00,0.00
15min,AgWx,beryljct,423,04APR2018:19:45:00,63.3,13.2,60.3,59.1,60.5,61.8,59.1,19,20,18,0.349,18.6,18.9,18.1,5.985,6.8,225,8.8,9.2,0.00072,0.00096,52.2,47.9,23,45,0,59.0,13.21,0.00,0.00
15min,AgWx,beryljct,423,04APR2018:20:00:00,61.2,13.16,58.3,57.7,58.3,59.1,57.7,21,21,20,0.346,18.4,18.9,18.1,8.15,6.4,234,9.4,8.7,0.00058,0.00079,52.2,48.0,23,13,0,56.5,13.21,0.00,0.00
15min,AgWx,beryljct,423,04APR2018:20:15:00,59.6,13.14,58.3,57.8,58.1,58.5,57.6,21,21,20,0.343,17.9,18.2,17.6,7.19,9.0,218,6.9,12.5,0.00074,0.00095,52.2,48.2,23,2,0,56.1,13.21,0.00,0.00
15min,AgWx,beryljct,423,04APR2018:20:30:00,58.4,13.11,57.7,57.9,57.5,57.9,57.2,21,22,21,0.339,18.0,18.3,17.6,9.93,9.0,223,7.3,12.0,0.00072,0.00092,52.1,48.3,23,0,0,55.7,13.21,0.00,0.00
15min,AgWx,beryljct,423,04APR2018:20:45:00,57.7,13.1,57.6,56.9,57.5,58.2,56.9,21,22,20,0.343,18.0,18.3,17.5,6.971,8.9,219,5.2,12.4,0.00072,0.00092,52.0,48.4,23,0,0,55.6,13.21,0.00,0.00
15min,AgWx,beryljct,423,04APR2018:21:00:00,56.9,13.1,56.5,56.5,56.4,56.9,56.2,22,23,22,0.342,18.3,18.5,18.0,10.22,8.3,221,4.9,10.2,0.00064,0.00084,51.8,48.5,23,0,0,54.4,13.21,0.00,0.00
15min,AgWx,beryljct,423,04APR2018:21:15:00,56.4,13.09,56.5,56.3,56.3,56.6,56.0,22,23,22,0.350,18.4,18.7,18.1,9.8,9.3,223,4.6,11.1,0.00070,0.00089,51.7,48.6,23,0,0,54.7,13.21,0.00,0.00
15min,AgWx,beryljct,423,04APR2018:21:30:00,56.0,13.08,56.3,56.2,56.1,56.3,55.9,23,23,22,0.349,18.6,18.8,18.4,9.32,9.6,219,4.6,11.9,0.00071,0.00090,51.5,48.7,23,0,0,54.4,13.21,0.00,0.00
15min,AgWx,beryljct,423,04APR2018:21:45:00,55.3,13.06,52.2,49.2,52.8,56.2,48.9,26,31,23,0.355,18.8,19.4,18.2,6.029,6.6,183,22,10.6,0.00047,0.00063,51.4,48.8,23,0,0,51.0,13.21,0.00,0.00
15min,AgWx,beryljct,423,04APR2018:22:00:00,53.4,13.06,52.2,57.3,51.2,57.3,48.9,27,31,21,0.336,18.5,20.0,17.6,6.182,5.3,44,81,12.9,0.00034,0.00047,51.2,48.9,23,0,0,48.6,13.21,0.00,0.00
15min,AgWx,beryljct,423,04APR2018:22:15:00,52.8,13.06,53.3,50.3,53.7,57.3,50.3,24,28,21,0.345,18.1,18.7,17.7,3.902,2.8,323,64,8.1,0.00011,0.00020,51.1,48.9,23,0,0,50.5,13.21,0.00,0.00
15min,AgWx,beryljct,423,04APR2018:22:30:00,51.5,13.05,48.7,46.3,48.9,50.6,45.7,29,34,27,0.343,18.0,18.8,17.5,1.118,2.4,294,21,5.8,0.00003,0.00009,50.9,49.0,22,0,0,46.2,13.21,0.00,0.00
15min,AgWx,beryljct,423,04APR2018:22:45:00,49.6,13.05,47.1,49.4,46.6,49.4,44.0,33,38,29,0.353,19.1,20.0,18.0,2.214,3.9,95,25,6.9,0.00016,0.00025,50.7,49.0,22,0,0,43.5,13.21,0.00,0.00
15min,AgWx,beryljct,423,04APR2018:23:00:00,48.2,13.04,45.6,46.8,45.6,49.5,44.2,35,37,29,0.353,19.3,20.0,18.7,3.771,1.3,326,49,3.8,-0.00013,-0.00016,50.5,49.1,22,0,0,42.8,13.21,0.00,0.00
15min,AgWx,beryljct,423,04APR2018:23:15:00,46.7,13.03,43.3,42.0,43.5,47.6,40.9,38,42,31,0.364,19.3,19.7,18.6,4.757,2.8,239,48,5.0,0.00004,0.00009,50.3,49.1,23,0,0,41.6,13.21,0.00,0.00
15min,AgWx,beryljct,423,04APR2018:23:30:00,45.2,13.02,42.7,43.4,42.1,44.1,40.2,38,43,34,0.348,18.3,19.7,17.4,3.223,3.6,201,24,4.7,0.00011,0.00017,50.1,49.1,23,0,0,40.3,13.21,0.00,0.00
15min,AgWx,beryljct,423,04APR2018:23:45:00,44.5,13.01,44.0,39.7,44.1,48.4,39.4,36,45,30,0.371,19.0,20.0,18.1,4.319,3.7,236,3.3,4.8,0.00013,0.00020,49.9,49.1,23,0,0,42.7,13.21,0.00,0.00
15min,AgWx,beryljct,423,05APR2018:00:00:00,43.4,13.01,40.4,39.1,40.2,41.8,38.9,42,45,39,0.341,19.2,20.2,17.7,6.182,3.5,209,38,7.9,0.00007,0.00012,49.6,49.1,23,0,0,38.5,13.21,0.00,0.00
15min,AgWx,beryljct,423,05APR2018:00:15:00,42.5,13,40.6,37.8,40.3,41.6,37.8,41,46,39,0.358,18.4,19.1,18.0,5.152,0.8,42,23,6.0,-0.00019,-0.00027,49.4,49.2,23,0,0,37.6,13.21,0.00,0.00
15min,AgWx,beryljct,423,05APR2018:00:30:00,41.4,12.99,37.3,36.7,37.0,39.3,35.2,48,51,44,0.350,19.1,19.8,18.2,0,1.4,106,36,4.9,-0.00010,-0.00012,49.2,49.1,23,0,0,35.6,13.21,0.00,0.00
15min,AgWx,beryljct,423,05APR2018:00:45:00,40.3,12.99,36.2,34.2,36.0,37.2,34.2,48,51,45,0.343,18.4,19.4,17.5,1.074,1.6,318,24,4.3,-0.00009,-0.00010,48.9,49.1,23,0,0,35.7,13.21,0.00,0.00
15min,AgWx,bigpiney,439,04APR2018:01:00:00,21.4,12.73,19.9,19.3,18.7,19.4,18.1,60,62,59,0.216,7.3,7.9,6.6,1.732,1.5,328,24,3.1,-0.00008,-0.00010,31.7,31.8,18,0,0,0.0,.,0.00,0.00
15min,AgWx,bigpiney,439,04APR2018:01:15:00,21.0,12.69,18.6,17.9,18.8,19.4,17.8,61,62,60,0.209,7.5,7.8,6.7,4.428,1.4,321,10,4.9,-0.00009,-0.00011,31.7,31.9,18,0,0,0.0,.,0.00,0.00
15min,AgWx,bigpiney,439,04APR2018:01:30:00,20.5,12.7,19.1,18.5,17.9,18.5,17.1,62,64,61,0.213,7.2,7.7,6.8,3.946,3.3,312,9.4,4.4,-0.00001,-0.00001,31.7,31.9,18,0,0,0.0,.,0.00,0.00
15min,AgWx,bigpiney,439,04APR2018:01:45:00,20.2,12.69,18.5,18.3,18.2,18.7,17.6,62,63,60,0.211,7.1,7.6,6.2,3.003,3.6,302,19,4.3,-0.00000,0.00001,31.7,31.9,18,0,0,0.0,.,0.00,0.00
15min,AgWx,bigpiney,439,04APR2018:02:00:00,20.0,12.68,16.9,17.6,18.3,18.8,17.6,61,62,60,0.205,7.1,7.6,6.5,4.801,3.7,318,12,5.9,-0.00000,0.00001,31.7,31.9,18,0,0,0.0,.,0.00,0.00
15min,AgWx,bigpiney,439,04APR2018:02:15:00,19.9,12.66,15.6,14.9,16.0,18.1,12.6,64,73,60,0.209,5.8,7.0,3.6,3.727,3.6,251,31,5.1,-0.00001,0.00000,31.7,32.0,18,0,0,0.0,.,0.00,0.00
15min,AgWx,bigpiney,439,04APR2018:02:30:00,19.5,12.65,20.2,18.3,16.7,18.7,14.7,63,70,59,0.211,6.3,7.5,4.5,2.938,2.9,297,56,6.8,-0.00002,-0.00002,31.7,31.9,18,0,0,0.0,.,0.00,0.00
15min,AgWx,bigpiney,439,04APR2018:02:45:00,19.3,12.64,15.0,14.8,18.1,19.7,14.6,60,67,56,0.200,6.6,7.2,4.8,4.494,4.3,342,45,6.1,0.00002,0.00003,31.7,31.9,18,0,0,0.0,.,0.00,0.00
15min,AgWx,bigpiney,439,04APR2018:03:00:00,19.2,12.62,13.2,12.9,14.7,17.2,12.8,69,75,63,0.203,6.2,7.7,5.0,5.415,3.2,217,12,5.6,-0.00003,-0.00002,31.7,31.9,18,0,0,0.0,.,0.00,0.00
15min,AgWx,bigpiney,439,04APR2018:03:15:00,18.8,12.61,14.9,14.1,13.2,14.1,12.5,73,75,71,0.213,6.2,7.3,5.5,3.705,4.4,239,13,5.4,-0.00001,-0.00001,31.7,31.9,18,0,0,0.0,.,0.00,0.00
15min,AgWx,bigpiney,439,04APR2018:03:30:00,18.5,12.61,15.8,14.5,14.6,16.0,13.9,72,75,67,0.220,7.1,8.4,6.0,2.696,2.5,229,19,4.1,-0.00005,-0.00005,31.7,31.9,18,0,0,0.0,.,0.00,0.00
15min,AgWx,bigpiney,439,04APR2018:03:45:00,18.3,12.59,16.1,14.2,14.9,16.9,13.3,72,75,67,0.213,7.4,8.4,6.7,2.258,2.9,211,26,5.6,-0.00004,-0.00004,31.7,31.9,18,0,0,0.0,.,0.00,0.00
15min,AgWx,bigpiney,439,04APR2018:04:00:00,18.3,12.57,19.0,18.5,18.0,18.9,14.3,62,73,59,0.208,6.9,8.1,6.3,0,1.3,6.7,44,3.8,-0.00009,-0.00011,31.7,31.9,18,0,0,0.0,.,0.00,0.00
15min,AgWx,bigpiney,439,04APR2018:04:15:00,18.5,12.56,17.2,16.2,16.6,18.5,14.8,66,73,60,0.218,7.0,8.1,6.3,1.337,1.6,283,29,3.9,-0.00008,-0.00010,31.7,31.9,18,0,0,0.0,.,0.00,0.00
15min,AgWx,bigpiney,439,04APR2018:04:30:00,18.6,12.54,18.3,17.5,16.4,17.5,14.2,68,74,64,0.214,7.6,8.5,6.3,2.324,1.8,257,57,5.5,-0.00007,-0.00008,31.7,31.8,18,0,0,0.0,.,0.00,0.00
15min,AgWx,bigpiney,439,04APR2018:04:45:00,18.6,12.53,19.4,17.5,17.3,18.0,16.3,65,70,62,0.224,7.6,8.5,6.6,1.228,1.4,211,21,3.0,-0.00009,-0.00011,31.7,31.9,18,0,0,0.0,.,0.00,0.00
15min,AgWx,bigpiney,439,04APR2018:05:00:00,18.7,12.51,18.4,17.1,17.8,19.1,16.7,65,69,59,0.221,7.9,8.9,6.3,2.17,1.3,244,21,3.4,-0.00009,-0.00012,31.7,31.9,18,0,0,0.0,.,0.00,0.00
15min,AgWx,bigpiney,439,04APR2018:05:15:00,18.7,12.5,16.9,16.2,17.7,19.2,16.2,63,67,59,0.208,7.2,8.1,6.2,3.661,1.1,9.1,49,3.7,-0.00010,-0.00014,31.7,31.9,18,0,0,0.0,.,0.00,0.00
15min,AgWx,bigpiney,439,04APR2018:05:30:00,18.7,12.47,16.8,16.3,16.5,18.3,15.3,66,72,61,0.227,7.1,8.8,5.6,5.13,3.3,222,5.6,5.3,-0.00002,-0.00002,31.7,31.9,18,0,0,0.0,.,0.00,0.00
15min,AgWx,bigpiney,439,04APR2018:05:45:00,18.5,12.46,14.4,14.7,15.5,16.7,14.6,70,73,67,0.208,7.5,8.8,6.8,4.976,4.6,221,8.9,7.9,-0.00000,0.00001,31.7,31.9,18,0,0,0.0,.,0.00,0.00
15min,AgWx,bigpiney,439,04APR2018:06:00:00,18.4,12.44,17.1,15.7,15.5,16.2,14.5,71,72,69,0.216,7.7,8.1,6.8,5.48,4.6,234,7.5,5.9,-0.00000,0.00000,31.7,31.9,18,0,0,0.0,.,0.00,0.00
15min,AgWx,bigpiney,439,04APR2018:06:15:00,18.5,12.44,18.8,18.6,18.0,20.0,15.8,64,70,56,0.216,7.8,8.5,6.6,0.526,2.9,241,31,6.0,-0.00003,-0.00002,31.7,31.9,18,0,0,0.0,.,0.00,0.00
15min,AgWx,bigpiney,439,04APR2018:06:30:00,18.9,12.42,17.4,16.6,17.8,18.7,16.5,66,72,61,0.231,8.1,9.2,7.4,2.587,2.7,251,47,5.5,-0.00004,-0.00004,31.7,31.9,18,0,0,0.0,.,0.00,0.00
15min,AgWx,bigpiney,439,04APR2018:06:45:00,19.3,12.43,18.9,18.5,17.6,18.7,16.6,70,73,67,0.239,9.6,10.1,9.2,3.223,5.1,220,14,7.6,0.00001,0.00002,31.7,31.9,18,0,0,0.0,.,0.00,0.00
15min,AgWx,bigpiney,439,04APR2018:07:00:00,19.8,12.43,19.6,19.5,19.0,19.5,18.4,66,69,64,0.234,9.6,10.0,9.3,3.442,3.5,234,20,7.3,-0.00002,-0.00001,31.7,31.9,18,2,0,0.0,.,0.00,0.00
15min,AgWx,bigpiney,439,04APR2018:07:15:00,20.4,12.43,18.9,18.7,19.6,20.5,18.7,65,70,60,0.245,9.6,10.7,8.6,2.148,3.0,205,34,6.1,-0.00008,-0.00000,31.7,31.9,18,12,0,0.0,.,0.00,0.00
15min,AgWx,bigpiney,439,04APR2018:07:30:00,20.6,12.47,18.0,17.6,18.5,19.4,17.4,72,77,68,0.258,10.9,11.7,10.3,0.921,2.8,178,44,5.3,-0.00006,0.00000,31.7,31.9,18,28,0,0.0,.,0.00,0.00
15min,AgWx,bigpiney,439,04APR2018:07:45:00,20.8,12.5,19.7,19.6,18.7,19.6,17.6,73,77,69,0.254,11.3,11.8,10.7,3.573,2.8,217,76,5.5,0.00006,0.00012,31.7,31.9,18,50,0,0.0,.,0.00,0.00
15min,AgWx,bigpiney,439,04APR2018:08:00:00,21.0,12.62,18.9,18.6,18.8,19.5,18.6,73,75,70,0.260,11.6,12.2,11.1,4.099,2.7,68,32,4.8,0.00016,0.00022,31.7,31.9,18,69,0,0.0,.,0.00,0.00
15min,AgWx,bigpiney,439,04APR2018:08:15:00,21.4,12.8,20.6,19.9,18.8,19.9,18.3,73,76,68,0.251,11.6,12.6,10.7,1.206,3.1,97,34,5.5,0.00025,0.00033,31.7,31.9,18,110,0,0.0,.,0.00,0.00
15min,AgWx,bigpiney,439,04APR2018:08:30:00,22.1,13.15,20.6,20.4,20.0,20.7,19.5,66,68,64,0.256,10.6,11.7,10.0,3.266,4.3,16,28,8.0,0.00042,0.00055,31.7,31.9,18,160,0,0.0,.,0.00,0.00
15min,AgWx,bigpiney,439,04APR2018:08:45:00,22.9,13.54,22.9,22.6,21.4,22.6,20.2,65,69,61,0.260,11.3,12.5,10.6,3.946,4.2,54,17,10.3,0.00055,0.00070,31.7,31.9,18,196,0,0.0,.,0.00,0.00
15min,AgWx,bigpiney,439,04APR2018:09:00:00,24.2,14.2,32.0,30.4,25.2,30.4,22.5,61,64,53,0.305,13.5,15.9,11.6,1.469,4.5,72,36,7.2,0.00083,0.00103,31.7,31.9,18,276,0,0.0,.,0.00,0.00